Craig, CO

2:19 PM MDT on July 27, 2017 (GMT -0600)
Craig-Moffat

Weather History for KCAG - October, 2013

Change the Weather History Date:

Sunday, October 6, 2013

  Actual Average Record
Temperature  
Mean Temperature 39 °F 47 °F  
Max Temperature 55 °F 66 °F 78 °F (1997)
Min Temperature 22 °F 29 °F 17 °F (2001)
Degree Days  
Heating Degree Days 26 18  
Month to date heating degree days 131 102  
Since 1 July heating degree days 315 467  
Cooling Degree Days 0 0  
Month to date cooling degree days 0 0  
Year to date cooling degree days 377 142  
Moisture  
Dew Point 27 °F    
Average Humidity 67    
Maximum Humidity 92    
Minimum Humidity 41    
Precipitation  
Precipitation 0.00 in 0.06 in 0.25 in (2006)
Month to date precipitation 0.58 0.37  
Year to date precipitation 9.89 12.33  
Sea Level Pressure  
Sea Level Pressure 30.49 in    
Wind  
Wind Speed 2 mph (SE)    
Max Wind Speed 9 mph    
Max Gust Speed 12 mph    
Visibility 10 miles    
Events      
T = Trace of Precipitation, MM = Missing Value Source: NWS Daily Summary

Daily Weather History Graph

Daily Weather History Graph

Search for Another Location

Airport or City:

Trip Planner

Search our weather history database for the weather conditions in past years. The results will help you decide how hot, cold, wet, or windy it might be!

Date:

Astronomy

Oct. 06, 2013 Rise Set
Actual Time 7:11 AM MDT 6:43 PM MDT
Civil Twilight 6:44 AM MDT 7:10 PM MDT
Nautical Twilight 6:13 AM MDT 7:42 PM MDT
Astronomical Twilight 5:41 AM MDT 8:14 PM MDT
Moon 9:00 AM MDT (10/6) 7:44 PM MDT (10/6)
Length of Visible Light 12h 26m
Length of Day
11h 31m
Waxing Crescent, 4% of the Moon is Illuminated
Oct 6
Waxing Crescent
Oct 11
First Quarter
Oct 18
Full
Oct 26
Last Quarter
Nov 3
New

Hourly Weather History & Observations

Time (MDT) Temp. Windchill Dew Point Humidity Pressure Visibility Wind Dir Wind Speed Gust Speed Precip Events Conditions
12:53 AM 24.1 °F - 21.0 °F 88% 30.56 in 10.0 mi Calm Calm - N/A   Clear
1:53 AM 24.1 °F - 21.0 °F 88% 30.56 in 10.0 mi Calm Calm - N/A   Clear
2:53 AM 26.1 °F - 21.0 °F 81% 30.54 in 10.0 mi Calm Calm - N/A   Clear
3:53 AM 23.0 °F - 19.0 °F 85% 30.55 in 10.0 mi Calm Calm - N/A   Clear
4:53 AM 21.9 °F - 19.0 °F 89% 30.56 in 10.0 mi Calm Calm - N/A   Clear
5:53 AM 21.9 °F - 19.0 °F 89% 30.56 in 10.0 mi Calm Calm - N/A   Clear
6:53 AM 21.9 °F 17.2 °F 19.0 °F 89% 30.58 in 10.0 mi WSW 3.5 mph - N/A   Clear
7:53 AM 24.1 °F - 21.0 °F 88% 30.60 in 10.0 mi Calm Calm - N/A   Clear
8:53 AM 28.9 °F - 25.0 °F 85% 30.58 in 10.0 mi Calm Calm - N/A   Clear
9:53 AM 34.0 °F - 27.0 °F 75% 30.55 in 10.0 mi Calm Calm - N/A   Clear
10:53 AM 39.9 °F 37.8 °F 28.0 °F 63% 30.53 in 10.0 mi SSW 3.5 mph - N/A   Clear
11:53 AM 46.0 °F 43.9 °F 28.0 °F 50% 30.51 in 10.0 mi NE 4.6 mph - N/A   Clear
12:53 PM 48.9 °F - 27.0 °F 43% 30.48 in 10.0 mi ESE 4.6 mph - N/A   Clear
1:53 PM 50.0 °F - 28.9 °F 44% 30.46 in 10.0 mi Calm Calm - N/A   Clear
2:53 PM 53.1 °F - 30.0 °F 41% 30.42 in 10.0 mi Calm Calm - N/A   Clear
3:53 PM 53.1 °F - 30.0 °F 41% 30.43 in 10.0 mi SSE 3.5 mph - N/A   Clear
4:53 PM 54.0 °F - 30.0 °F 40% 30.42 in 10.0 mi SE 4.6 mph - N/A   Clear
5:53 PM 54.0 °F - 32.0 °F 43% 30.41 in 10.0 mi Calm Calm - N/A   Clear
6:53 PM 46.0 °F 43.1 °F 34.0 °F 63% 30.43 in 10.0 mi SE 5.8 mph - N/A   Clear
7:53 PM 43.0 °F - 33.1 °F 68% 30.44 in 10.0 mi Calm Calm - N/A   Clear
8:53 PM 39.9 °F 36.7 °F 32.0 °F 73% 30.43 in 10.0 mi East 4.6 mph - N/A   Clear
9:53 PM 35.1 °F - 30.9 °F 85% 30.43 in 10.0 mi Calm Calm - N/A   Clear
10:53 PM 36.0 °F 33.3 °F 30.9 °F 82% 30.40 in 10.0 mi East 3.5 mph - N/A   Clear
11:53 PM 32.0 °F - 28.0 °F 85% 30.38 in 10.0 mi Calm Calm - N/A   Clear